Showing default

QIANFAN-53, 62254

Orbit data source: Space-Track

QIANFAN-53, 62254 is a Chinese payload satellite in LEO that was launched on Thu, 05 Dec 2024 UTC via a CHANG ZHENG 6A launch vehicle from the Taiyaun Space Center, China (TSC). Payload-class satellites include a variety of spacecraft equipped with specific instruments for various scientific and technological missions. These include communications satellites like Starlink; space stations such as the ISS; scientific satellites like the Hubble; Earth observation satellites from companies like Planet Labs, Umbra, and HawkEye 360; GPS; miniature CubeSats for education and research; and military/defense satellites.

Loading next visibility...
Identifier
62254, 2024-232T
Orbit
LEO
Country
Flag of CNCN / PRC
Related business
Manufacturer
SECM
Mission
Operational Commercial Communications
Bus & Motor
QIANFAN, Unknown motor
Mass
267 kg wet, ~267 kg dry
Launch date (UTC)
2024-12-05 (2 years ago)
Launch vehicle
CHANG ZHENG 6A
Launch site
Taiyaun Space Center, China (TSC)
Object type
Payload
Rocket body
Debris
Shape & HBR
Box + 1 Pan, 5.0 m
Radar Cross Section
13.200 m², Large (>1 m²)

Expand to show TLE details & history
Last TLE update: 13 hours ago

TLE from 13 hours ago
0 QIANFAN-53
1 62254U 24232T   26171.38468234  .00000072  00000-0  92468-4 0  9999
2 62254  89.0079  22.1680 0014694  13.6532 346.5013 13.51008391 93518
Epoch: 2026-06-20T09:13Z
TLE epoch observation values (Epoch: 2026-06-20T09:13:56.554Z)
Latitude
-0.00008°
Longitude
-24.91772°
Altitude
1,060.863 km
Speed
7.327 km/s
True Right ascension
01h 28m 40s
True Declination
0° 00' 00"
Sunlit
Object was in daylight at epoch
Visualization orbit readout
Latitude
Unknown
Longitude
Unknown
Altitude
Unknown
Speed
Unknown
Apparent Right ascension
Unknown
Apparent Declination
Unknown
Sunlit
N/A
Visualization observer readout
Local Sidereal Time
08:41:45
Azimuth
Unknown
Elevation
Unknown
Doppler factor
Unknown
Orbital elements
Apogee altitude
1,076.54 km
Perigee altitude
1,054.664 km
Semi-major axis
7,443.739 km
Eccentricity
0.00147
Inclination
89.0079°
RAAN
22.168°
Arg. of periapsis
13.6532°
True anomaly
346.46193°
Mean anomaly
346.5013°
Eccentric anomaly
346.48162°
Mean motion
3.37953 °/min
Orbital period
106.52 mins
BSTAR
0.000092468
Loading maneuver chart data...
Computing Atmospheric mass density...
Loading historical data...
Loading historical data...
Loading historical data...
Loading historical data...
Loading historical data...
Loading historical data...
Loading historical data...

Documentation

Showing up to 5 results
|